Find Starlink 1301

NORAD ID: 45361 Int'l Des: 2020-019 Owner: SPXS Country: US Constellation: starlink operational
LEOCIRCULAR

現在のビュー

3D地球を読み込み中...

About Starlink 1301

Starlink 1301 (NORAD 45361) is a starlink constellation satellite (v1.0) launched Mar 18, 2020 by SPXS of US. It operates in LEO, CIRCULAR orbit with a mass of 260.00 kg.

Starlink 1301について

説明を読み込み中...

次回通過

Passes for default location (London). Set your location on the main map for personalized predictions.

高度履歴

Loading altitude history...

軌道要素

1 45361U 20019B 26169.61877644 .00097326 00000-0 45660-3 0 9999
2 45361 53.0355 323.4487 0001852 328.1306 31.9603 15.82441309346486
Epoch: Jun 18, 2026 • Age: 7 hours

現在のステータス

高度 330.5 km
速度 7.71 km/s
衛星直下点 -22.93°S, 73.59°W
打ち上げ日 Mar 18, 2020
運用期間 6.2 years
タイプ internet

技術仕様

分類 Payload
質量 260.00 kg
乾燥質量 248.00 kg
総質量 260.00 kg
長さ 0.20 m
直径 2.80 m
スパン 9.00 m
形状 Box + pan
製造者 SPXS
バスタイプ Starlink
フェーズステータス In Orbit
所有者/国 SPXS/US

Most Searched